WX6HNX-12 Weather Reports


Display with metric or nautical units.
time (UTC)temp
F
wind
direction
speed
MPH
gust
MPH
rain 1hr
in
rain 24hr
in
rain mn
in
humidity
%
barometer
mb
20260506230320 78 0 0.0 0.0 0.00 0.00 0.00 39 1016.2
20260506225819 78 0 0.0 3.0 0.00 0.00 0.00 39 1016.2
20260506225319 78 0 0.0 5.0 0.00 0.00 0.00 39 1016.3
20260506224820 78 0 0.0 6.0 0.00 0.00 0.00 39 1016.4
20260506224319 78 0 0.0 6.0 0.00 0.00 0.00 39 1016.4
20260506223819 78 0 0.0 1.0 0.00 0.00 0.00 39 1016.6
20260506223319 78 0 0.0 1.0 0.00 0.00 0.00 39 1016.6
20260506222819 78 0 0.0 0.0 0.00 0.00 0.00 39 1016.6
20260506222320 78 0 0.0 4.0 0.00 0.00 0.00 40 1016.6
20260506221820 77 0 0.0 4.0 0.00 0.00 0.00 39 1016.7
20260506221322 77 0 0.0 1.0 0.00 0.00 0.00 40 1016.7
20260506220822 77 0 0.0 1.0 0.00 0.00 0.00 40 1016.8
20260506220321 77 0 0.0 2.0 0.00 0.00 0.00 40 1016.8
20260506215820 77 0 0.0 4.0 0.00 0.00 0.00 41 1016.9
20260506215322 76 0 0.0 4.0 0.00 0.00 0.00 40 1017.0
20260506214821 76 0 0.0 0.0 0.00 0.00 0.00 41 1017.1
20260506214321 76 0 0.0 2.0 0.00 0.00 0.00 41 1017.1
20260506213821 76 0 0.0 2.0 0.00 0.00 0.00 41 1017.2
20260506213008 76 0 0.0 4.0 0.00 0.00 0.00 41 1017.3
20260506212507 75 0 0.0 0.0 0.00 0.00 0.00 41 1017.3
20260506212006 75 0 0.0 0.0 0.00 0.00 0.00 41 1017.3
20260506211506 75 0 0.0 0.0 0.00 0.00 0.00 41 1017.5
20260506211005 75 0 0.0 0.0 0.00 0.00 0.00 41 1017.5
20260506210506 76 0 0.0 3.0 0.00 0.00 0.00 41 1017.4
20260506210009 76 0 0.0 3.0 0.00 0.00 0.00 41 1017.4
20260506205428 75 0 0.0 4.0 0.00 0.00 0.00 41 1017.4
20260506204928 75 0 0.0 4.0 0.00 0.00 0.00 42 1017.4
20260506204431 74 0 0.0 5.0 0.00 0.00 0.00 43 1017.5
20260506203928 74 0 0.0 5.0 0.00 0.00 0.00 42 1017.6
20260506202924 74 0 0.0 0.0 0.00 0.00 0.00 43 1017.6
20260506202425 73 0 0.0 1.0 0.00 0.00 0.00 44 1017.8
20260506201924 73 0 0.0 1.0 0.00 0.00 0.00 44 1017.8
20260506201424 74 0 0.0 7.0 0.00 0.00 0.00 44 1017.8
20260506200925 74 170 1.0 7.0 0.00 0.00 0.00 43 1017.9
20260506200424 74 0 0.0 4.0 0.00 0.00 0.00 44 1018.0
20260506195925 73 0 0.0 4.0 0.00 0.00 0.00 45 1018.0
20260506195424 73 0 0.0 1.0 0.00 0.00 0.00 45 1018.0
20260506194924 73 0 0.0 1.0 0.00 0.00 0.00 45 1018.1
20260506194424 73 0 0.0 0.0 0.00 0.00 0.00 46 1018.1
20260506193925 72 0 0.0 0.0 0.00 0.00 0.00 46 1018.1
20260506193424 72 0 0.0 0.0 0.00 0.00 0.00 47 1018.3
20260506192424 71 0 0.0 0.0 0.00 0.00 0.00 47 1018.4
20260506191925 71 0 0.0 2.0 0.00 0.00 0.00 49 1018.4
20260506191424 71 0 0.0 2.0 0.00 0.00 0.00 48 1018.5
20260506190926 71 0 0.0 5.0 0.00 0.00 0.00 48 1018.7
20260506190424 71 0 0.0 5.0 0.00 0.00 0.00 49 1018.8
20260506185924 70 0 0.0 5.0 0.00 0.00 0.00 49 1018.8
20260506185425 70 0 0.0 5.0 0.00 0.00 0.00 49 1018.9
20260506184925 70 0 0.0 0.0 0.00 0.00 0.00 49 1018.9
20260506184424 70 0 0.0 0.0 0.00 0.00 0.00 50 1018.9
20260506183924 70 0 0.0 0.0 0.00 0.00 0.00 51 1019.1
20260506183423 69 0 0.0 0.0 0.00 0.01 0.00 52 1019.0
20260506182924 69 0 0.0 0.0 0.00 0.01 0.00 51 1019.2
20260506182424 69 0 0.0 0.0 0.00 0.01 0.00 52 1019.2
20260506181925 69 0 0.0 0.0 0.00 0.01 0.00 53 1019.4
20260506181425 69 0 0.0 0.0 0.00 0.01 0.00 52 1019.4
20260506180924 69 0 0.0 1.0 0.00 0.01 0.00 54 1019.5
20260506180424 68 0 0.0 1.0 0.00 0.01 0.00 54 1019.6
20260506175924 69 0 0.0 0.0 0.00 0.01 0.00 54 1019.5
20260506175423 69 0 0.0 0.0 0.00 0.02 0.00 57 1019.6
20260506174655 68 0 0.0 0.0 0.00 0.02 0.00 57 1019.6
20260506174154 68 0 0.0 0.0 0.00 0.02 0.00 57 1019.7
20260506173654 68 0 0.0 0.0 0.00 0.02 0.00 58 1019.8
20260506173155 67 0 0.0 0.0 0.00 0.02 0.00 60 1019.7
20260506172654 66 0 0.0 0.0 0.00 0.02 0.00 61 1019.8
20260506172155 66 0 0.0 0.0 0.00 0.02 0.00 61 1019.9
20260506171654 66 0 0.0 0.0 0.00 0.02 0.00 61 1019.9
20260506171155 66 0 0.0 0.0 0.00 0.02 0.00 61 1019.9
20260506170655 66 0 0.0 0.0 0.00 0.03 0.00 61 1019.9
20260506170158 66 0 0.0 0.0 0.00 0.03 0.00 62 1019.9
20260506165655 65 0 0.0 0.0 0.00 0.03 0.00 64 1020.0
20260506165156 64 0 0.0 0.0 0.00 0.03 0.00 65 1019.9
20260506164655 64 0 0.0 0.0 0.00 0.03 0.00 66 1019.9
20260506164156 64 0 0.0 0.0 0.00 0.04 0.00 66 1019.9
20260506163655 63 0 0.0 0.0 0.00 0.06 0.00 66 1019.9
20260506163155 63 0 0.0 0.0 0.00 0.06 0.00 66 1020.0
20260506162656 63 0 0.0 0.0 0.00 0.08 0.00 67 1020.0
20260506162154 62 0 0.0 0.0 0.00 0.08 0.00 67 1020.0
20260506161655 62 0 0.0 0.0 0.00 0.08 0.00 68 1020.0
20260506161155 62 0 0.0 0.0 0.00 0.08 0.00 68 1020.1
20260506160655 62 0 0.0 0.0 0.00 0.08 0.00 68 1020.1
20260506160157 62 0 0.0 0.0 0.00 0.08 0.00 68 1020.1
20260506155654 62 0 0.0 0.0 0.00 0.08 0.00 70 1020.1
20260506155154 62 0 0.0 0.0 0.00 0.08 0.00 71 1020.0
20260506154656 61 0 0.0 0.0 0.00 0.08 0.00 71 1020.0
20260506154154 61 0 0.0 0.0 0.00 0.08 0.00 72 1020.1
20260506153654 61 0 0.0 0.0 0.00 0.08 0.00 73 1020.0
20260506153156 60 0 0.0 4.0 0.00 0.08 0.00 73 1020.1
20260506152656 60 0 0.0 6.0 0.00 0.08 0.00 74 1020.0
20260506152155 60 0 0.0 6.0 0.00 0.08 0.00 74 1020.1
20260506151656 60 0 0.0 5.0 0.00 0.08 0.00 74 1020.1
20260506151154 60 0 0.0 0.0 0.00 0.08 0.00 74 1020.2
20260506150654 59 0 0.0 0.0 0.00 0.08 0.00 75 1020.2
20260506150155 59 0 0.0 5.0 0.00 0.08 0.00 76 1020.2
20260506145657 59 354 2.0 6.0 0.00 0.08 0.00 76 1020.1
20260506145155 58 0 0.0 8.0 0.00 0.08 0.00 76 1020.2
20260506144654 58 0 0.0 8.0 0.00 0.08 0.00 76 1020.2
20260506144155 58 0 0.0 8.0 0.00 0.08 0.00 77 1020.2
20260506143655 58 0 0.0 8.0 0.00 0.08 0.00 77 1020.1
20260506143154 58 0 0.0 5.0 0.00 0.08 0.00 77 1020.1
20260506142655 57 0 0.0 0.0 0.00 0.08 0.00 77 1020.1
20260506142158 57 0 0.0 0.0 0.00 0.08 0.00 77 1020.1
20260506141655 57 0 0.0 0.0 0.00 0.08 0.00 78 1020.1
20260506140752 57 0 0.0 0.0 0.00 0.08 0.00 78 1020.0
20260506140251 57 0 0.0 0.0 0.00 0.08 0.00 79 1020.0
20260506135752 56 0 0.0 0.0 0.00 0.08 0.00 79 1019.9
20260506135251 56 0 0.0 0.0 0.00 0.08 0.00 80 1019.8
20260506134752 56 0 0.0 0.0 0.00 0.09 0.00 80 1019.8
20260506134251 55 0 0.0 0.0 0.00 0.11 0.00 81 1019.8
20260506133754 55 0 0.0 0.0 0.00 0.12 0.00 81 1019.7
20260506133053 54 0 0.0 0.0 0.00 0.12 0.00 82 1019.7
20260506132551 54 0 0.0 0.0 0.00 0.12 0.00 82 1019.6
20260506132052 54 0 0.0 0.0 0.00 0.12 0.00 82 1019.6
20260506131608 53 0 0.0 0.0 0.00 0.12 0.00 82 1019.6
20260506131052 53 0 0.0 0.0 0.00 0.12 0.00 80 1019.5
20260506130551 54 0 0.0 0.0 0.00 0.12 0.00 80 1019.5
20260506130054 54 0 0.0 0.0 0.00 0.14 0.00 79 1019.4
20260506125552 55 0 0.0 0.0 0.00 0.14 0.00 79 1019.3
20260506125053 55 0 0.0 0.0 0.00 0.14 0.00 78 1019.2
20260506124552 55 0 0.0 0.0 0.00 0.14 0.00 78 1019.2
20260506124054 55 0 0.0 0.0 0.00 0.14 0.00 78 1019.1
20260506123551 56 0 0.0 0.0 0.00 0.14 0.00 77 1019.1
20260506123052 56 0 0.0 0.0 0.00 0.14 0.00 78 1019.0
20260506122551 56 0 0.0 0.0 0.00 0.14 0.00 78 1018.9
20260506122052 56 0 0.0 0.0 0.00 0.14 0.00 78 1018.7
20260506121551 55 0 0.0 0.0 0.00 0.14 0.00 78 1018.7
20260506121053 56 0 0.0 0.0 0.00 0.14 0.00 77 1018.6
20260506120551 56 0 0.0 0.0 0.00 0.14 0.00 76 1018.6
20260506120005 57 0 0.0 0.0 0.00 0.14 0.00 75 1018.6
20260506115505 57 0 0.0 0.0 0.00 0.14 0.00 74 1018.7
20260506115007 57 0 0.0 0.0 0.00 0.14 0.00 74 1018.7
20260506114511 57 0 0.0 0.0 0.00 0.14 0.00 74 1018.7
20260506114005 58 0 0.0 0.0 0.00 0.15 0.00 73 1018.6
20260506113005 58 0 0.0 5.0 0.00 0.15 0.00 73 1018.7
20260506112506 58 0 0.0 5.0 0.00 0.15 0.00 73 1018.6
20260506112006 58 0 0.0 5.0 0.00 0.15 0.00 73 1018.6
20260506111511 58 0 0.0 8.0 0.00 0.15 0.00 73 1018.6
20260506111005 58 0 0.0 8.0 0.00 0.15 0.00 73 1018.6
20260506110006 58 0 0.0 6.0 0.00 0.15 0.00 73 1018.6
20260506105248 58 3 1.0 8.0 0.00 0.15 0.00 73 1018.6
20260506104749 58 11 1.0 8.0 0.00 0.15 0.00 73 1018.6
20260506104248 58 0 0.0 6.0 0.00 0.15 0.00 73 1018.5
20260506103748 58 354 1.0 6.0 0.00 0.15 0.00 73 1018.5
20260506103249 58 0 0.0 8.0 0.00 0.15 0.00 73 1018.5
20260506102248 58 0 0.0 6.0 0.00 0.15 0.00 72 1018.5
20260506101643 58 0 0.0 6.0 0.00 0.15 0.00 72 1018.5
20260506101144 58 0 0.0 6.0 0.00 0.16 0.00 72 1018.5
20260506100645 58 358 1.0 6.0 0.00 0.16 0.00 72 1018.4
20260506100143 58 0 0.0 4.0 0.00 0.16 0.00 72 1018.4
20260506095644 57 0 0.0 2.0 0.00 0.16 0.00 72 1018.3
20260506094940 57 0 0.0 8.0 0.00 0.16 0.00 71 1018.4
20260506094439 57 8 1.0 8.0 0.00 0.16 0.00 70 1018.3
20260506093940 57 0 0.0 3.0 0.00 0.16 0.00 70 1018.3
20260506093439 57 0 0.0 3.0 0.00 0.16 0.00 69 1018.3
20260506092941 58 0 0.0 7.0 0.00 0.16 0.00 69 1018.3
20260506092440 58 0 0.0 7.0 0.00 0.16 0.00 69 1018.2
20260506091940 58 0 0.0 6.0 0.00 0.16 0.00 68 1018.2
20260506091436 58 358 1.0 6.0 0.00 0.16 0.00 68 1018.1
20260506090944 58 0 0.0 4.0 0.00 0.16 0.00 68 1018.2
20260506090441 58 0 0.0 4.0 0.00 0.16 0.00 68 1018.1
20260506085936 58 0 0.0 6.0 0.00 0.16 0.00 67 1018.1
20260506085439 58 0 0.0 8.0 0.00 0.16 0.00 67 1018.1
20260506084937 58 346 1.0 8.0 0.00 0.16 0.00 66 1018.1
20260506084236 58 0 0.0 5.0 0.00 0.16 0.00 66 1018.2
20260506083736 58 0 0.0 5.0 0.00 0.16 0.00 66 1018.2
20260506083236 58 0 0.0 5.0 0.00 0.16 0.00 67 1018.1
20260506082736 57 0 0.0 2.0 0.00 0.16 0.00 69 1018.1
20260506082236 57 0 0.0 0.0 0.00 0.16 0.00 69 1018.0
20260506081736 57 0 0.0 0.0 0.00 0.16 0.00 67 1018.0
20260506081236 57 0 0.0 0.0 0.00 0.16 0.00 67 1018.0
20260506080736 58 0 0.0 0.0 0.00 0.16 0.00 67 1017.9
20260506080236 58 0 0.0 0.0 0.00 0.16 0.00 67 1017.8
20260506073236 57 0 0.0 0.0 0.00 0.16 0.00 68 1017.7
20260506072736 57 0 0.0 0.0 0.00 0.16 0.00 68 1017.6
20260506072236 58 0 0.0 0.0 0.00 0.16 0.00 68 1017.6
20260506071736 58 0 0.0 0.0 0.00 0.16 0.00 68 1017.5
20260506071236 57 0 0.0 0.0 0.00 0.16 0.00 68 1017.5
20260506070736 58 0 0.0 0.0 0.00 0.16 0.00 68 1017.4
20260506070236 58 0 0.0 0.0 0.00 0.16 0.00 68 1017.4
20260506062038 58 0 0.0 0.0 0.00 0.16 0.16 70 1016.9
20260506061539 58 0 0.0 0.0 0.00 0.16 0.16 70 1016.8
20260506061042 58 0 0.0 0.0 0.00 0.16 0.16 70 1016.8
20260506051038 58 0 0.0 0.0 0.00 0.16 0.16 73 1016.6
20260506050538 58 0 0.0 0.0 0.00 0.16 0.16 74 1016.6
20260506045038 58 0 0.0 0.0 0.00 0.16 0.16 74 1016.4
20260506044542 58 0 0.0 0.0 0.00 0.16 0.16 74 1016.3
20260506044041 58 0 0.0 0.0 0.00 0.16 0.16 74 1016.3
20260506043543 59 0 0.0 0.0 0.00 0.16 0.16 73 1016.2
20260506043042 59 0 0.0 0.0 0.00 0.16 0.16 73 1016.2
20260506042541 59 0 0.0 0.0 0.00 0.16 0.16 72 1016.2
20260506042042 60 0 0.0 0.0 0.00 0.16 0.16 70 1016.0
20260506041543 60 0 0.0 0.0 0.00 0.16 0.16 69 1015.9
20260506041041 60 0 0.0 0.0 0.00 0.16 0.16 68 1015.9
20260506040538 61 0 0.0 0.0 0.00 0.16 0.16 67 1015.9
20260506040044 61 0 0.0 0.0 0.00 0.16 0.16 66 1015.8
20260506035542 61 0 0.0 0.0 0.00 0.16 0.16 64 1015.7
20260506035042 62 0 0.0 0.0 0.00 0.16 0.16 63 1015.7
20260506034214 62 0 0.0 0.0 0.00 0.16 0.16 62 1015.5
20260506033717 62 0 0.0 0.0 0.00 0.16 0.16 62 1015.5
20260506033215 62 0 0.0 0.0 0.00 0.16 0.16 61 1015.4
20260506032715 62 0 0.0 0.0 0.00 0.16 0.16 61 1015.4
20260506032216 63 0 0.0 0.0 0.00 0.16 0.16 60 1015.3
20260506031715 63 0 0.0 0.0 0.00 0.16 0.16 59 1015.1
20260506031215 63 0 0.0 0.0 0.00 0.16 0.16 57 1015.0
20260506030715 63 0 0.0 0.0 0.00 0.16 0.16 57 1015.0
20260506030214 63 0 0.0 0.0 0.00 0.16 0.16 57 1014.9
20260506025715 63 0 0.0 0.0 0.00 0.16 0.16 56 1014.8
20260506025214 63 0 0.0 0.0 0.00 0.16 0.16 57 1014.7
20260506024714 63 0 0.0 0.0 0.00 0.16 0.16 56 1014.8
20260506024217 63 0 0.0 0.0 0.00 0.16 0.16 56 1014.7
20260506023717 64 0 0.0 0.0 0.00 0.16 0.16 56 1014.7
20260506023214 64 0 0.0 0.0 0.00 0.16 0.16 56 1014.6
20260506022714 64 0 0.0 0.0 0.00 0.16 0.16 54 1014.6
20260506022214 64 0 0.0 0.0 0.00 0.16 0.16 53 1014.5
20260506021715 64 0 0.0 0.0 0.00 0.16 0.16 53 1014.5
20260506021214 64 0 0.0 0.0 0.00 0.16 0.16 54 1014.5
20260506020716 64 0 0.0 0.0 0.00 0.16 0.16 54 1014.5
20260506020217 64 0 0.0 0.0 0.00 0.16 0.16 53 1014.3
20260506015214 64 0 0.0 0.0 0.00 0.16 0.16 53 1014.3
20260506014715 64 0 0.0 0.0 0.00 0.16 0.16 56 1014.4
20260506014214 64 0 0.0 0.0 0.00 0.16 0.16 57 1014.3
20260506013714 64 0 0.0 0.0 0.00 0.16 0.16 56 1014.3
20260506013214 64 0 0.0 0.0 0.00 0.16 0.16 56 1014.3
20260506012714 65 0 0.0 4.0 0.00 0.16 0.16 56 1014.2
20260506012214 65 0 0.0 4.0 0.00 0.16 0.16 55 1014.2
20260506011714 66 0 0.0 0.0 0.00 0.16 0.16 54 1014.3
20260506011216 66 0 0.0 0.0 0.00 0.16 0.16 54 1014.2
20260506010714 66 0 0.0 0.0 0.00 0.16 0.16 54 1014.2
20260506010215 66 0 0.0 0.0 0.00 0.16 0.16 55 1014.1
20260506005717 66 0 0.0 0.0 0.00 0.16 0.16 56 1014.1
20260506005214 65 0 0.0 0.0 0.00 0.16 0.16 56 1014.1
20260506004714 65 0 0.0 0.0 0.00 0.16 0.16 58 1014.1
20260506004214 64 0 0.0 0.0 0.00 0.16 0.16 58 1014.1
20260506003714 64 0 0.0 0.0 0.00 0.16 0.16 59 1014.2
20260506003214 64 0 0.0 0.0 0.00 0.16 0.16 59 1014.2
20260506002714 64 0 0.0 0.0 0.00 0.16 0.16 60 1014.2
20260506002214 63 0 0.0 0.0 0.00 0.16 0.16 60 1014.2
20260506001714 64 0 0.0 0.0 0.00 0.16 0.16 59 1014.2
20260506001214 64 0 0.0 0.0 0.00 0.16 0.16 60 1014.2
20260506000714 64 0 0.0 0.0 0.00 0.16 0.16 59 1014.2
20260506000214 64 0 0.0 0.0 0.00 0.16 0.16 58 1014.2
20260505235715 64 0 0.0 4.0 0.00 0.16 0.16 58 1014.2
20260505235214 64 0 0.0 5.0 0.00 0.16 0.16 58 1014.2
20260505234714 65 0 0.0 5.0 0.00 0.16 0.16 58 1014.2
20260505234214 65 0 0.0 0.0 0.00 0.16 0.16 58 1014.2
20260505233714 65 0 0.0 0.0 0.00 0.16 0.16 58 1014.2
20260505233214 64 0 0.0 0.0 0.00 0.16 0.16 59 1014.2
20260505232714 64 0 0.0 0.0 0.00 0.16 0.16 58 1014.3
20260505232009 65 0 0.0 5.0 0.00 0.16 0.16 58 1014.4
20260505231509 65 0 0.0 4.0 0.00 0.16 0.16 59 1014.4
20260505231010 65 0 0.0 0.0 0.00 0.16 0.16 60 1014.4
20260505230512 64 0 0.0 0.0 0.00 0.16 0.16 60 1014.4